[[{"header":{"parameterUnit":"m.s-1","parameterCategory":1,"la1":30.2992,"la2":30.254,"lo1":-89.0895,"lo2":-89.0443,"dy":0.0025,"dx":0.0025,"nx":19,"ny":19,"refTime":"2026-05-10T09:00:00:Z","depth":0,"parameterNumber":2,"parameterNumberName":"U-component_of_WINDS"},"data":[0,0,0,0.111,0.1112,0.1216,0.1216,0.133,0.1331,0,0,0,0,0,0,0,0,0,0,0,0.1068,0.1069,0.111,0.1112,0.1216,0.1216,0.1329,0.1331,0,0,0,0,0,0,0,0,0,0,0,0.1068,0.1069,0.1069,0.1113,0.1216,0.1217,0.1329,0.1258,0,0,0,0,0,0,0,0,0,0,0.116,0.1111,0.1069,0.1069,0.1113,0.1216,0.1217,0.1255,0.1262,0.1275,0,0.1283,0,0.1308,0.1337,0.1337,0,0,0,0.1121,0.1105,0.1143,0.1069,0.1114,0.1215,0.1172,0.1259,0.1268,0.1284,0.1285,0.129,0.131,0.1338,0.1338,0.1382,0.1381,0,0,0.1115,0.1081,0.1137,0.1148,0.1131,0.1168,0.1175,0.1265,0.1263,0.1285,0.1293,0.1312,0.1338,0.1339,0.1382,0.1382,0,0,0,0.1093,0.1077,0.1113,0.1143,0.1163,0.1171,0.1178,0.1259,0.1273,0.1294,0.1314,0.1339,0.134,0.1382,0.1382,0.1339,0,0,0,0.109,0.1064,0.111,0.109,0.1161,0.1212,0.117,0.1267,0.1278,0.1313,0.1339,0.1341,0.1382,0.1382,0.134,0.1324,0,0,0,0.1065,0.1061,0.1073,0.1088,0.1132,0.1212,0.1232,0.127,0.129,0.1337,0.1341,0.1383,0.1382,0.1342,0.1326,0.1324,0,0,0,0.103,0.1034,0.1071,0.1083,0.1131,0.1185,0.1231,0.1274,0.1309,0.1339,0.1382,0.1382,0.1342,0.1328,0.1325,0.1314,0.1307,0,0,0.1016,0.1031,0.1041,0.1077,0.1116,0.1172,0.1204,0.1269,0.1305,0.1354,0.1355,0.134,0.1326,0.1324,0.1282,0.1276,0,0,0,0.1025,0.1031,0.1049,0.1081,0.113,0.1171,0.1235,0.1259,0.1302,0.1323,0.134,0.1333,0.1333,0.133,0.1325,0.1326,0.1379,0.1379,0.1379,0.0956,0.1001,0.1019,0.1076,0.1107,0.1172,0.1201,0.1244,0.1281,0.1284,0.1299,0.1267,0.1262,0.1258,0.1259,0.1298,0.1298,0.1298,0.1298,0.0938,0.0953,0.1002,0.1037,0.1084,0.1114,0.1177,0.1202,0.1236,0.1261,0.1263,0.1284,0.125,0.1253,0.1295,0.1296,0.1296,0.1296,0.1296,0.0896,0.0911,0.094,0.099,0.1024,0.1083,0.1112,0.1155,0.1196,0.1198,0.1217,0.1217,0.1222,0.1204,0.1204,0.1204,0.1204,0.1204,0.1204,0.084,0.0874,0.0895,0.0947,0.0973,0.1012,0.1077,0.1103,0.1143,0.1172,0.1172,0.1207,0.124,0.1245,0.1202,0.1203,0.1203,0.1203,0.1203,0.0802,0.0817,0.0848,0.0874,0.0938,0.0967,0.1022,0.1072,0.11,0.1113,0.1148,0.1166,0.1184,0.1188,0.1193,0.114,0.114,0.114,0.114,0.0765,0.0778,0.0819,0.0857,0.0899,0.0951,0.0983,0.1033,0.1088,0.1108,0.1122,0.1133,0.1136,0.1153,0.1158,0.1163,0.1103,0.1103,0.1103,0.0742,0.0762,0.0781,0.0835,0.0888,0.0933,0.0964,0.1004,0.107,0.1102,0.1124,0.1125,0.1144,0.1148,0.1178,0.1185,0.1196,0,0]},{"header":{"parameterUnit":"m.s-1","parameterCategory":1,"la1":30.2992,"la2":30.254,"lo1":-89.0895,"lo2":-89.0443,"dy":0.0025,"dx":0.0025,"nx":19,"ny":19,"refTime":"2026-05-10T09:00:00:Z","depth":0,"parameterNumber":3,"parameterNumberName":"V-component_of_WINDS"},"data":[0,0,0,3.0016,3.0016,2.9985,2.9985,2.9967,2.9967,0,0,0,0,0,0,0,0,0,0,0,3.0038,3.0038,3.0016,3.0015,2.9985,2.9985,2.9967,2.9967,0,0,0,0,0,0,0,0,0,0,0,3.0038,3.0038,3.0038,3.0015,2.9985,2.9985,2.9967,2.9982,0,0,0,0,0,0,0,0,0,0,3.0008,3.0041,3.0038,3.0038,3.0015,2.9986,2.9985,2.9983,2.9982,2.999,0,3.0001,0,2.9984,2.9968,2.9968,0,0,0,3.0006,3.0042,3.0023,3.0038,3.0015,2.9986,2.9996,2.9982,2.998,2.9988,3.0001,3.0,2.9984,2.9968,2.9968,3.0052,3.0052,0,0,3.0007,3.0039,3.0024,3.0022,3.0029,2.9997,2.9995,2.9981,2.9996,3.0001,2.9999,2.9984,2.9968,2.9968,3.0051,3.0052,0,0,0,3.0019,3.0041,3.0021,3.0024,3.0017,2.9997,2.9994,2.9997,2.9988,2.9998,2.9983,2.9968,2.9968,3.005,3.0051,3.0127,0,0,0,3.0019,3.0047,3.0022,3.0041,3.0018,3.0007,3.0011,2.9989,2.9986,2.9984,2.9968,2.9968,3.0049,3.005,3.0122,3.0157,0,0,0,3.0035,3.0049,3.0049,3.0043,3.0031,3.0006,2.9996,2.9987,2.9978,2.9968,2.9968,3.0048,3.005,3.0119,3.0151,3.0191,0,0,0,3.0061,3.0115,3.0051,3.0105,3.0032,3.0053,2.9995,3.0009,3.0009,2.9968,3.0049,3.0051,3.0118,3.0147,3.0187,3.0232,3.0253,0,0,3.0147,3.0127,3.0156,3.0098,3.0139,3.0055,3.0106,3.0075,3.0044,3.0051,3.0052,3.0124,3.0151,3.019,3.0355,3.0372,0,0,0,3.0194,3.0216,3.022,3.0222,3.0201,3.0185,3.0143,3.0132,3.0137,3.0054,3.0146,3.0161,3.0183,3.0203,3.0218,3.0235,3.0061,3.0061,3.006,3.0362,3.0321,3.0367,3.0323,3.0326,3.0283,3.0281,3.0259,3.0214,3.0237,3.024,3.0345,3.037,3.038,3.0399,3.0258,3.0258,3.0258,3.0258,3.0486,3.0512,3.0453,3.0477,3.0433,3.0452,3.0413,3.0381,3.0393,3.0339,3.0356,3.0303,3.04,3.0415,3.0264,3.0263,3.0262,3.0261,3.0261,3.0594,3.0599,3.0585,3.0585,3.059,3.0541,3.0557,3.0514,3.0475,3.0492,3.0491,3.049,3.0485,3.0494,3.0494,3.0495,3.0495,3.0495,3.0495,3.0713,3.0694,3.0712,3.0695,3.0692,3.0682,3.0639,3.0635,3.0619,3.0587,3.0587,3.0543,3.0417,3.0387,3.0501,3.05,3.0499,3.0499,3.0498,3.0858,3.0819,3.0847,3.0845,3.0821,3.083,3.0775,3.077,3.076,3.0769,3.072,3.0633,3.0609,3.0597,3.0573,3.0727,3.0727,3.0727,3.0727,3.0951,3.0935,3.0955,3.0954,3.0947,3.0901,3.0935,3.0903,3.0863,3.0854,3.0825,3.0788,3.0778,3.076,3.0745,3.0721,3.091,3.0911,3.0911,3.104,3.1021,3.1058,3.1019,3.0998,3.0981,3.1012,3.1013,3.0958,3.0917,3.0847,3.0839,3.0779,3.0761,3.0722,3.0699,3.0655,0,0]}]]